owner,sensor,date,latitude,longitude,air_pressure(mBar),qcFlag 
TCOON,ioos:station:TCOON:013:1,2015-02-01T00:12:00Z,27.4847,-97.3181,1015.1,1111122 
TCOON,ioos:station:TCOON:013:1,2015-02-01T01:12:00Z,27.4847,-97.3181,1015.4,1111122 
TCOON,ioos:station:TCOON:013:1,2015-02-01T02:12:00Z,27.4847,-97.3181,1015.8,1111122 
TCOON,ioos:station:TCOON:013:1,2015-02-01T03:12:00Z,27.4847,-97.3181,1015.0,1111122 
TCOON,ioos:station:TCOON:013:1,2015-02-01T04:12:00Z,27.4847,-97.3181,1014.1,1111122 
TCOON,ioos:station:TCOON:013:1,2015-02-01T05:12:00Z,27.4847,-97.3181,1012.4,1111122 
TCOON,ioos:station:TCOON:013:1,2015-02-01T06:12:00Z,27.4847,-97.3181,1013.0,1111122 
TCOON,ioos:station:TCOON:013:1,2015-02-01T07:12:00Z,27.4847,-97.3181,1013.5,1111122 
TCOON,ioos:station:TCOON:013:1,2015-02-01T08:12:00Z,27.4847,-97.3181,1013.4,1111122 
TCOON,ioos:station:TCOON:013:1,2015-02-01T09:12:00Z,27.4847,-97.3181,1012.4,1111122 
TCOON,ioos:station:TCOON:013:1,2015-02-01T10:12:00Z,27.4847,-97.3181,1012.5,1111122 
TCOON,ioos:station:TCOON:013:1,2015-02-01T11:12:00Z,27.4847,-97.3181,1012.6,1111122 
TCOON,ioos:station:TCOON:013:1,2015-02-01T12:12:00Z,27.4847,-97.3181,1013.1,1111122 
TCOON,ioos:station:TCOON:013:1,2015-02-01T13:12:00Z,27.4847,-97.3181,1013.4,1111122 
TCOON,ioos:station:TCOON:013:1,2015-02-01T14:12:00Z,27.4847,-97.3181,1014.0,1111122 
TCOON,ioos:station:TCOON:013:1,2015-02-01T15:12:00Z,27.4847,-97.3181,1014.8,1111122 
TCOON,ioos:station:TCOON:013:1,2015-02-01T16:12:00Z,27.4847,-97.3181,1014.9,1111122 
TCOON,ioos:station:TCOON:013:1,2015-02-01T17:12:00Z,27.4847,-97.3181,1014.6,1111122 
TCOON,ioos:station:TCOON:013:1,2015-02-01T18:12:00Z,27.4847,-97.3181,1013.9,1111122 
TCOON,ioos:station:TCOON:013:1,2015-02-01T19:12:00Z,27.4847,-97.3181,1013.3,1111122 
TCOON,ioos:station:TCOON:013:1,2015-02-01T20:18:00Z,27.4847,-97.3181,1012.6,1111122 
TCOON,ioos:station:TCOON:013:1,2015-02-01T21:12:00Z,27.4847,-97.3181,1012.0,1111122 
TCOON,ioos:station:TCOON:013:1,2015-02-01T22:12:00Z,27.4847,-97.3181,1012.7,1111122 
TCOON,ioos:station:TCOON:013:1,2015-02-01T23:12:00Z,27.4847,-97.3181,1012.6,1111122 
TCOON,ioos:station:TCOON:013:1,2015-02-02T00:18:00Z,27.4847,-97.3181,1013.8,1111122 
TCOON,ioos:station:TCOON:013:1,2015-02-02T01:12:00Z,27.4847,-97.3181,1014.7,1111122 
TCOON,ioos:station:TCOON:013:1,2015-02-02T02:12:00Z,27.4847,-97.3181,1016.1,1111122 
TCOON,ioos:station:TCOON:013:1,2015-02-02T03:12:00Z,27.4847,-97.3181,1017.1,1111122 
TCOON,ioos:station:TCOON:013:1,2015-02-02T04:12:00Z,27.4847,-97.3181,1018.5,1111122 
TCOON,ioos:station:TCOON:013:1,2015-02-02T05:12:00Z,27.4847,-97.3181,1019.4,1111122 
TCOON,ioos:station:TCOON:013:1,2015-02-02T06:12:00Z,27.4847,-97.3181,1020.4,1111122 
TCOON,ioos:station:TCOON:013:1,2015-02-02T07:12:00Z,27.4847,-97.3181,1021.4,1111122 
TCOON,ioos:station:TCOON:013:1,2015-02-02T08:12:00Z,27.4847,-97.3181,1022.2,1111122 
TCOON,ioos:station:TCOON:013:1,2015-02-02T09:12:00Z,27.4847,-97.3181,1023.0,1111122 
TCOON,ioos:station:TCOON:013:1,2015-02-02T10:12:00Z,27.4847,-97.3181,1024.1,1111122 
TCOON,ioos:station:TCOON:013:1,2015-02-02T11:12:00Z,27.4847,-97.3181,1024.5,1111122 
TCOON,ioos:station:TCOON:013:1,2015-02-02T12:12:00Z,27.4847,-97.3181,1025.2,1111122 
TCOON,ioos:station:TCOON:013:1,2015-02-02T13:12:00Z,27.4847,-97.3181,1026.1,1111122 
TCOON,ioos:station:TCOON:013:1,2015-02-02T14:12:00Z,27.4847,-97.3181,1027.5,1111122 
TCOON,ioos:station:TCOON:013:1,2015-02-02T15:12:00Z,27.4847,-97.3181,1028.9,1111122 
TCOON,ioos:station:TCOON:013:1,2015-02-02T16:12:00Z,27.4847,-97.3181,1028.8,1111122 
TCOON,ioos:station:TCOON:013:1,2015-02-02T17:12:00Z,27.4847,-97.3181,1029.2,1111122 
TCOON,ioos:station:TCOON:013:1,2015-02-02T18:12:00Z,27.4847,-97.3181,1028.2,1111122 
TCOON,ioos:station:TCOON:013:1,2015-02-02T19:12:00Z,27.4847,-97.3181,1027.0,1111122 
TCOON,ioos:station:TCOON:013:1,2015-02-02T20:12:00Z,27.4847,-97.3181,1026.0,1111122 
TCOON,ioos:station:TCOON:013:1,2015-02-02T21:18:00Z,27.4847,-97.3181,1025.7,1111122 
TCOON,ioos:station:TCOON:013:1,2015-02-02T22:24:00Z,27.4847,-97.3181,1025.4,1111122 
TCOON,ioos:station:TCOON:013:1,2015-02-02T23:12:00Z,27.4847,-97.3181,1025.7,1111122 
TCOON,ioos:station:TCOON:013:1,2015-02-03T00:12:00Z,27.4847,-97.3181,1025.8,1111122 
TCOON,ioos:station:TCOON:013:1,2015-02-03T01:18:00Z,27.4847,-97.3181,1026.7,1111122 
TCOON,ioos:station:TCOON:013:1,2015-02-03T02:18:00Z,27.4847,-97.3181,1026.5,1111122 
TCOON,ioos:station:TCOON:013:1,2015-02-03T03:06:00Z,27.4847,-97.3181,1027.1,1111122 
TCOON,ioos:station:TCOON:013:1,2015-02-03T04:12:00Z,27.4847,-97.3181,1027.0,1111122 
TCOON,ioos:station:TCOON:013:1,2015-02-03T05:12:00Z,27.4847,-97.3181,1026.7,1111122 
TCOON,ioos:station:TCOON:013:1,2015-02-03T06:18:00Z,27.4847,-97.3181,1026.3,1111122 
TCOON,ioos:station:TCOON:013:1,2015-02-03T07:12:00Z,27.4847,-97.3181,1026.1,1111122 
TCOON,ioos:station:TCOON:013:1,2015-02-03T08:12:00Z,27.4847,-97.3181,1025.9,1111122 
TCOON,ioos:station:TCOON:013:1,2015-02-03T09:12:00Z,27.4847,-97.3181,1025.5,1111122 
TCOON,ioos:station:TCOON:013:1,2015-02-03T10:12:00Z,27.4847,-97.3181,1025.5,1111122 
TCOON,ioos:station:TCOON:013:1,2015-02-03T11:12:00Z,27.4847,-97.3181,1025.1,1111122 
TCOON,ioos:station:TCOON:013:1,2015-02-03T12:12:00Z,27.4847,-97.3181,1025.0,1111122 
TCOON,ioos:station:TCOON:013:1,2015-02-03T13:12:00Z,27.4847,-97.3181,1024.8,1111122 
TCOON,ioos:station:TCOON:013:1,2015-02-03T14:12:00Z,27.4847,-97.3181,1025.1,1111122 
TCOON,ioos:station:TCOON:013:1,2015-02-03T15:12:00Z,27.4847,-97.3181,1025.7,1111122 
TCOON,ioos:station:TCOON:013:1,2015-02-03T16:12:00Z,27.4847,-97.3181,1026.2,1111122 
TCOON,ioos:station:TCOON:013:1,2015-02-03T17:12:00Z,27.4847,-97.3181,1026.4,1111122 
TCOON,ioos:station:TCOON:013:1,2015-02-03T18:12:00Z,27.4847,-97.3181,1025.9,1111122 
TCOON,ioos:station:TCOON:013:1,2015-02-03T19:18:00Z,27.4847,-97.3181,1024.8,1111122 
TCOON,ioos:station:TCOON:013:1,2015-02-03T20:12:00Z,27.4847,-97.3181,1023.0,1111122 
TCOON,ioos:station:TCOON:013:1,2015-02-03T21:12:00Z,27.4847,-97.3181,1022.6,1111122 
TCOON,ioos:station:TCOON:013:1,2015-02-03T22:12:00Z,27.4847,-97.3181,1022.8,1111122 
TCOON,ioos:station:TCOON:013:1,2015-02-03T23:12:00Z,27.4847,-97.3181,1022.5,1111122 
TCOON,ioos:station:TCOON:013:1,2015-02-04T00:18:00Z,27.4847,-97.3181,1023.0,1111122 
TCOON,ioos:station:TCOON:013:1,2015-02-04T01:18:00Z,27.4847,-97.3181,1022.9,1111122 
TCOON,ioos:station:TCOON:013:1,2015-02-04T02:12:00Z,27.4847,-97.3181,1022.8,1111122 
TCOON,ioos:station:TCOON:013:1,2015-02-04T03:12:00Z,27.4847,-97.3181,1023.3,1111122 
TCOON,ioos:station:TCOON:013:1,2015-02-04T04:12:00Z,27.4847,-97.3181,1022.4,1111122 
TCOON,ioos:station:TCOON:013:1,2015-02-04T05:12:00Z,27.4847,-97.3181,1022.6,1111122 
TCOON,ioos:station:TCOON:013:1,2015-02-04T06:18:00Z,27.4847,-97.3181,1020.8,1111122 
TCOON,ioos:station:TCOON:013:1,2015-02-04T07:12:00Z,27.4847,-97.3181,1020.0,1111122 
TCOON,ioos:station:TCOON:013:1,2015-02-04T08:12:00Z,27.4847,-97.3181,1019.1,1111122 
TCOON,ioos:station:TCOON:013:1,2015-02-04T09:12:00Z,27.4847,-97.3181,1019.6,1111122 
TCOON,ioos:station:TCOON:013:1,2015-02-04T10:12:00Z,27.4847,-97.3181,1019.0,1111122 
TCOON,ioos:station:TCOON:013:1,2015-02-04T11:12:00Z,27.4847,-97.3181,1018.8,1111122 
TCOON,ioos:station:TCOON:013:1,2015-02-04T12:12:00Z,27.4847,-97.3181,1019.0,1111122 
TCOON,ioos:station:TCOON:013:1,2015-02-04T13:12:00Z,27.4847,-97.3181,1019.8,1111122 
TCOON,ioos:station:TCOON:013:1,2015-02-04T14:12:00Z,27.4847,-97.3181,1020.0,1111122 
TCOON,ioos:station:TCOON:013:1,2015-02-04T15:12:00Z,27.4847,-97.3181,1020.1,1111122 
TCOON,ioos:station:TCOON:013:1,2015-02-04T16:12:00Z,27.4847,-97.3181,1020.7,1111122 
TCOON,ioos:station:TCOON:013:1,2015-02-04T17:12:00Z,27.4847,-97.3181,1020.2,1111122 
TCOON,ioos:station:TCOON:013:1,2015-02-04T18:12:00Z,27.4847,-97.3181,1019.7,1111122 
TCOON,ioos:station:TCOON:013:1,2015-02-04T19:12:00Z,27.4847,-97.3181,1018.9,1111122 
TCOON,ioos:station:TCOON:013:1,2015-02-04T20:12:00Z,27.4847,-97.3181,1018.5,1111122 
TCOON,ioos:station:TCOON:013:1,2015-02-04T21:12:00Z,27.4847,-97.3181,1018.1,1111122 
TCOON,ioos:station:TCOON:013:1,2015-02-04T22:42:00Z,27.4847,-97.3181,1018.2,1111122 
TCOON,ioos:station:TCOON:013:1,2015-02-04T23:18:00Z,27.4847,-97.3181,1018.4,1111122 
TCOON,ioos:station:TCOON:013:1,2015-02-05T00:12:00Z,27.4847,-97.3181,1018.4,1111122 
TCOON,ioos:station:TCOON:013:1,2015-02-05T01:18:00Z,27.4847,-97.3181,1018.9,1111122 
TCOON,ioos:station:TCOON:013:1,2015-02-05T02:18:00Z,27.4847,-97.3181,1019.0,1111122 
TCOON,ioos:station:TCOON:013:1,2015-02-05T03:12:00Z,27.4847,-97.3181,1019.7,1111122 
TCOON,ioos:station:TCOON:013:1,2015-02-05T04:12:00Z,27.4847,-97.3181,1020.5,1111122 
TCOON,ioos:station:TCOON:013:1,2015-02-05T05:12:00Z,27.4847,-97.3181,1020.9,1111122 
TCOON,ioos:station:TCOON:013:1,2015-02-05T06:12:00Z,27.4847,-97.3181,1021.3,1111122 
TCOON,ioos:station:TCOON:013:1,2015-02-05T07:12:00Z,27.4847,-97.3181,1022.1,1111122 
TCOON,ioos:station:TCOON:013:1,2015-02-05T08:06:00Z,27.4847,-97.3181,1022.2,1111122 
TCOON,ioos:station:TCOON:013:1,2015-02-05T09:12:00Z,27.4847,-97.3181,1022.2,1111122 
TCOON,ioos:station:TCOON:013:1,2015-02-05T10:12:00Z,27.4847,-97.3181,1022.4,1111122 
TCOON,ioos:station:TCOON:013:1,2015-02-05T11:12:00Z,27.4847,-97.3181,1022.9,1111122 
TCOON,ioos:station:TCOON:013:1,2015-02-05T12:12:00Z,27.4847,-97.3181,1024.1,1111122 
TCOON,ioos:station:TCOON:013:1,2015-02-05T13:12:00Z,27.4847,-97.3181,1025.5,1111122 
TCOON,ioos:station:TCOON:013:1,2015-02-05T14:12:00Z,27.4847,-97.3181,1026.5,1111122 
TCOON,ioos:station:TCOON:013:1,2015-02-05T15:12:00Z,27.4847,-97.3181,1027.4,1111122 
TCOON,ioos:station:TCOON:013:1,2015-02-05T16:12:00Z,27.4847,-97.3181,1028.2,1111122 
TCOON,ioos:station:TCOON:013:1,2015-02-05T17:12:00Z,27.4847,-97.3181,1028.7,1111122 
TCOON,ioos:station:TCOON:013:1,2015-02-05T18:12:00Z,27.4847,-97.3181,1028.6,1111122 
TCOON,ioos:station:TCOON:013:1,2015-02-05T19:12:00Z,27.4847,-97.3181,1027.9,1111122 
TCOON,ioos:station:TCOON:013:1,2015-02-05T20:18:00Z,27.4847,-97.3181,1027.3,1111122 
TCOON,ioos:station:TCOON:013:1,2015-02-05T21:12:00Z,27.4847,-97.3181,1027.3,1111122 
TCOON,ioos:station:TCOON:013:1,2015-02-05T22:18:00Z,27.4847,-97.3181,1027.2,1111122 
TCOON,ioos:station:TCOON:013:1,2015-02-05T23:12:00Z,27.4847,-97.3181,1027.5,1111122 
TCOON,ioos:station:TCOON:013:1,2015-02-06T00:12:00Z,27.4847,-97.3181,1027.7,1111122 
TCOON,ioos:station:TCOON:013:1,2015-02-06T01:12:00Z,27.4847,-97.3181,1028.1,1111122 
TCOON,ioos:station:TCOON:013:1,2015-02-06T02:12:00Z,27.4847,-97.3181,1028.7,1111122 
TCOON,ioos:station:TCOON:013:1,2015-02-06T03:12:00Z,27.4847,-97.3181,1029.4,1111122 
TCOON,ioos:station:TCOON:013:1,2015-02-06T04:12:00Z,27.4847,-97.3181,1030.3,1111122 
TCOON,ioos:station:TCOON:013:1,2015-02-06T05:12:00Z,27.4847,-97.3181,1030.5,1111122 
TCOON,ioos:station:TCOON:013:1,2015-02-06T06:18:00Z,27.4847,-97.3181,1030.2,1111122 
TCOON,ioos:station:TCOON:013:1,2015-02-06T07:12:00Z,27.4847,-97.3181,1029.9,1111122 
TCOON,ioos:station:TCOON:013:1,2015-02-06T08:12:00Z,27.4847,-97.3181,1029.7,1111122 
TCOON,ioos:station:TCOON:013:1,2015-02-06T09:12:00Z,27.4847,-97.3181,1029.4,1111122 
TCOON,ioos:station:TCOON:013:1,2015-02-06T10:12:00Z,27.4847,-97.3181,1029.3,1111122 
TCOON,ioos:station:TCOON:013:1,2015-02-06T11:12:00Z,27.4847,-97.3181,1029.5,1111122 
TCOON,ioos:station:TCOON:013:1,2015-02-06T12:12:00Z,27.4847,-97.3181,1029.7,1111122 
TCOON,ioos:station:TCOON:013:1,2015-02-06T13:12:00Z,27.4847,-97.3181,1030.1,1111122 
TCOON,ioos:station:TCOON:013:1,2015-02-06T14:12:00Z,27.4847,-97.3181,1030.6,1111122 
TCOON,ioos:station:TCOON:013:1,2015-02-06T15:12:00Z,27.4847,-97.3181,1030.9,1111122 
TCOON,ioos:station:TCOON:013:1,2015-02-06T16:18:00Z,27.4847,-97.3181,1030.9,1111122 
TCOON,ioos:station:TCOON:013:1,2015-02-06T17:12:00Z,27.4847,-97.3181,1030.7,1111122 
TCOON,ioos:station:TCOON:013:1,2015-02-06T18:18:00Z,27.4847,-97.3181,1029.9,1111122 
TCOON,ioos:station:TCOON:013:1,2015-02-06T19:12:00Z,27.4847,-97.3181,1028.9,1111122 
TCOON,ioos:station:TCOON:013:1,2015-02-06T20:12:00Z,27.4847,-97.3181,1027.8,1111122 
TCOON,ioos:station:TCOON:013:1,2015-02-06T21:12:00Z,27.4847,-97.3181,1027.3,1111122 
TCOON,ioos:station:TCOON:013:1,2015-02-06T22:12:00Z,27.4847,-97.3181,1027.0,1111122 
TCOON,ioos:station:TCOON:013:1,2015-02-06T23:12:00Z,27.4847,-97.3181,1026.6,1111122 
TCOON,ioos:station:TCOON:013:1,2015-02-07T00:12:00Z,27.4847,-97.3181,1026.3,1111122 
TCOON,ioos:station:TCOON:013:1,2015-02-07T01:18:00Z,27.4847,-97.3181,1026.4,1111122 
TCOON,ioos:station:TCOON:013:1,2015-02-07T02:18:00Z,27.4847,-97.3181,1026.5,1111122 
TCOON,ioos:station:TCOON:013:1,2015-02-07T03:12:00Z,27.4847,-97.3181,1026.4,1111122 
TCOON,ioos:station:TCOON:013:1,2015-02-07T04:12:00Z,27.4847,-97.3181,1026.1,1111122 
TCOON,ioos:station:TCOON:013:1,2015-02-07T05:12:00Z,27.4847,-97.3181,1025.8,1111122 
TCOON,ioos:station:TCOON:013:1,2015-02-07T06:12:00Z,27.4847,-97.3181,1025.1,1111122 
TCOON,ioos:station:TCOON:013:1,2015-02-07T07:12:00Z,27.4847,-97.3181,1024.5,1111122 
TCOON,ioos:station:TCOON:013:1,2015-02-07T08:12:00Z,27.4847,-97.3181,1023.9,1111122 
TCOON,ioos:station:TCOON:013:1,2015-02-07T09:12:00Z,27.4847,-97.3181,1023.4,1111122 
TCOON,ioos:station:TCOON:013:1,2015-02-07T10:12:00Z,27.4847,-97.3181,1022.8,1111122 
TCOON,ioos:station:TCOON:013:1,2015-02-07T11:12:00Z,27.4847,-97.3181,1022.4,1111122 
TCOON,ioos:station:TCOON:013:1,2015-02-07T12:06:00Z,27.4847,-97.3181,1022.5,1111122 
TCOON,ioos:station:TCOON:013:1,2015-02-07T13:12:00Z,27.4847,-97.3181,1022.5,1111122 
TCOON,ioos:station:TCOON:013:1,2015-02-07T14:12:00Z,27.4847,-97.3181,1022.7,1111122 
TCOON,ioos:station:TCOON:013:1,2015-02-07T15:12:00Z,27.4847,-97.3181,1023.0,1111122 
TCOON,ioos:station:TCOON:013:1,2015-02-07T16:12:00Z,27.4847,-97.3181,1023.2,1111122 
TCOON,ioos:station:TCOON:013:1,2015-02-07T17:12:00Z,27.4847,-97.3181,1022.8,1111122 
TCOON,ioos:station:TCOON:013:1,2015-02-07T18:12:00Z,27.4847,-97.3181,1022.1,1111122 
TCOON,ioos:station:TCOON:013:1,2015-02-07T19:12:00Z,27.4847,-97.3181,1020.6,1111122 
TCOON,ioos:station:TCOON:013:1,2015-02-07T20:12:00Z,27.4847,-97.3181,1019.5,1111122 
TCOON,ioos:station:TCOON:013:1,2015-02-07T21:12:00Z,27.4847,-97.3181,1018.7,1111122 
TCOON,ioos:station:TCOON:013:1,2015-02-07T22:12:00Z,27.4847,-97.3181,1018.3,1111122 
TCOON,ioos:station:TCOON:013:1,2015-02-07T23:12:00Z,27.4847,-97.3181,1018.0,1111122 
TCOON,ioos:station:TCOON:013:1,2015-02-08T00:12:00Z,27.4847,-97.3181,1017.7,1111122 
TCOON,ioos:station:TCOON:013:1,2015-02-08T01:18:00Z,27.4847,-97.3181,1017.9,1111122 
TCOON,ioos:station:TCOON:013:1,2015-02-08T02:12:00Z,27.4847,-97.3181,1018.2,1111122 
TCOON,ioos:station:TCOON:013:1,2015-02-08T03:12:00Z,27.4847,-97.3181,1018.5,1111122 
TCOON,ioos:station:TCOON:013:1,2015-02-08T04:12:00Z,27.4847,-97.3181,1018.5,1111122 
TCOON,ioos:station:TCOON:013:1,2015-02-08T05:12:00Z,27.4847,-97.3181,1018.2,1111122 
TCOON,ioos:station:TCOON:013:1,2015-02-08T06:18:00Z,27.4847,-97.3181,1017.4,1111122 
TCOON,ioos:station:TCOON:013:1,2015-02-08T07:12:00Z,27.4847,-97.3181,1016.4,1111122 
TCOON,ioos:station:TCOON:013:1,2015-02-08T08:12:00Z,27.4847,-97.3181,1015.6,1111122 
TCOON,ioos:station:TCOON:013:1,2015-02-08T09:12:00Z,27.4847,-97.3181,1015.2,1111122 
TCOON,ioos:station:TCOON:013:1,2015-02-08T10:12:00Z,27.4847,-97.3181,1015.0,1111122 
TCOON,ioos:station:TCOON:013:1,2015-02-08T11:06:00Z,27.4847,-97.3181,1014.7,1111122 
TCOON,ioos:station:TCOON:013:1,2015-02-08T12:12:00Z,27.4847,-97.3181,1015.1,1111122 
TCOON,ioos:station:TCOON:013:1,2015-02-08T13:12:00Z,27.4847,-97.3181,1015.5,1111122 
TCOON,ioos:station:TCOON:013:1,2015-02-08T14:12:00Z,27.4847,-97.3181,1015.7,1111122 
TCOON,ioos:station:TCOON:013:1,2015-02-08T15:12:00Z,27.4847,-97.3181,1016.1,1111122 
TCOON,ioos:station:TCOON:013:1,2015-02-08T16:12:00Z,27.4847,-97.3181,1015.7,1111122 
TCOON,ioos:station:TCOON:013:1,2015-02-08T17:12:00Z,27.4847,-97.3181,1015.3,1111122 
TCOON,ioos:station:TCOON:013:1,2015-02-08T18:12:00Z,27.4847,-97.3181,1014.5,1111122 
TCOON,ioos:station:TCOON:013:1,2015-02-08T19:06:00Z,27.4847,-97.3181,1013.2,1111122 
TCOON,ioos:station:TCOON:013:1,2015-02-08T20:12:00Z,27.4847,-97.3181,1011.9,1111122 
TCOON,ioos:station:TCOON:013:1,2015-02-08T21:12:00Z,27.4847,-97.3181,1011.1,1111122 
TCOON,ioos:station:TCOON:013:1,2015-02-08T22:06:00Z,27.4847,-97.3181,1010.5,1111122 
TCOON,ioos:station:TCOON:013:1,2015-02-08T23:12:00Z,27.4847,-97.3181,1010.4,1111122 
TCOON,ioos:station:TCOON:013:1,2015-02-09T00:12:00Z,27.4847,-97.3181,1010.8,1111122 
TCOON,ioos:station:TCOON:013:1,2015-02-09T01:12:00Z,27.4847,-97.3181,1011.4,1111122 
TCOON,ioos:station:TCOON:013:1,2015-02-09T02:12:00Z,27.4847,-97.3181,1011.9,1111122 
TCOON,ioos:station:TCOON:013:1,2015-02-09T03:12:00Z,27.4847,-97.3181,1012.6,1111122 
TCOON,ioos:station:TCOON:013:1,2015-02-09T04:12:00Z,27.4847,-97.3181,1013.4,1111122 
TCOON,ioos:station:TCOON:013:1,2015-02-09T05:12:00Z,27.4847,-97.3181,1014.3,1111122 
TCOON,ioos:station:TCOON:013:1,2015-02-09T06:12:00Z,27.4847,-97.3181,1014.3,1111122 
TCOON,ioos:station:TCOON:013:1,2015-02-09T07:06:00Z,27.4847,-97.3181,1014.2,1111122 
TCOON,ioos:station:TCOON:013:1,2015-02-09T08:12:00Z,27.4847,-97.3181,1014.4,1111122 
TCOON,ioos:station:TCOON:013:1,2015-02-09T09:12:00Z,27.4847,-97.3181,1014.8,1111122 
TCOON,ioos:station:TCOON:013:1,2015-02-09T10:06:00Z,27.4847,-97.3181,1015.3,1111122 
TCOON,ioos:station:TCOON:013:1,2015-02-09T11:12:00Z,27.4847,-97.3181,1015.9,1111122 
TCOON,ioos:station:TCOON:013:1,2015-02-09T12:12:00Z,27.4847,-97.3181,1016.9,1111122 
TCOON,ioos:station:TCOON:013:1,2015-02-09T13:12:00Z,27.4847,-97.3181,1017.6,1111122 
TCOON,ioos:station:TCOON:013:1,2015-02-09T14:12:00Z,27.4847,-97.3181,1018.5,1111122 
TCOON,ioos:station:TCOON:013:1,2015-02-09T15:12:00Z,27.4847,-97.3181,1019.3,1111122 
TCOON,ioos:station:TCOON:013:1,2015-02-09T16:12:00Z,27.4847,-97.3181,1020.2,1111122 
TCOON,ioos:station:TCOON:013:1,2015-02-09T17:12:00Z,27.4847,-97.3181,1020.3,1111122 
TCOON,ioos:station:TCOON:013:1,2015-02-09T18:12:00Z,27.4847,-97.3181,1020.1,1111122 
TCOON,ioos:station:TCOON:013:1,2015-02-09T19:12:00Z,27.4847,-97.3181,1019.3,1111122 
TCOON,ioos:station:TCOON:013:1,2015-02-09T20:12:00Z,27.4847,-97.3181,1018.4,1111122 
TCOON,ioos:station:TCOON:013:1,2015-02-09T21:12:00Z,27.4847,-97.3181,1018.1,1111122 
TCOON,ioos:station:TCOON:013:1,2015-02-09T22:12:00Z,27.4847,-97.3181,1017.9,1111122 
TCOON,ioos:station:TCOON:013:1,2015-02-09T23:18:00Z,27.4847,-97.3181,1017.7,1111122 
TCOON,ioos:station:TCOON:013:1,2015-02-10T00:12:00Z,27.4847,-97.3181,1017.7,1111122 
TCOON,ioos:station:TCOON:013:1,2015-02-10T01:24:00Z,27.4847,-97.3181,1017.9,1111122 
TCOON,ioos:station:TCOON:013:1,2015-02-10T02:12:00Z,27.4847,-97.3181,1018.0,1111122 
TCOON,ioos:station:TCOON:013:1,2015-02-10T03:12:00Z,27.4847,-97.3181,1018.3,1111122 
TCOON,ioos:station:TCOON:013:1,2015-02-10T04:12:00Z,27.4847,-97.3181,1018.2,1111122 
TCOON,ioos:station:TCOON:013:1,2015-02-10T05:12:00Z,27.4847,-97.3181,1018.1,1111122 
TCOON,ioos:station:TCOON:013:1,2015-02-10T06:12:00Z,27.4847,-97.3181,1017.9,1111122 
TCOON,ioos:station:TCOON:013:1,2015-02-10T07:12:00Z,27.4847,-97.3181,1017.6,1111122 
TCOON,ioos:station:TCOON:013:1,2015-02-10T08:12:00Z,27.4847,-97.3181,1017.3,1111122 
TCOON,ioos:station:TCOON:013:1,2015-02-10T09:12:00Z,27.4847,-97.3181,1017.1,1111122 
TCOON,ioos:station:TCOON:013:1,2015-02-10T10:06:00Z,27.4847,-97.3181,1016.9,1111122 
TCOON,ioos:station:TCOON:013:1,2015-02-10T11:12:00Z,27.4847,-97.3181,1017.1,1111122 
TCOON,ioos:station:TCOON:013:1,2015-02-10T12:12:00Z,27.4847,-97.3181,1017.3,1111122 
TCOON,ioos:station:TCOON:013:1,2015-02-10T13:18:00Z,27.4847,-97.3181,1018.1,1111122 
TCOON,ioos:station:TCOON:013:1,2015-02-10T14:12:00Z,27.4847,-97.3181,1018.5,1111122 
TCOON,ioos:station:TCOON:013:1,2015-02-10T15:12:00Z,27.4847,-97.3181,1018.6,1111122 
TCOON,ioos:station:TCOON:013:1,2015-02-10T16:18:00Z,27.4847,-97.3181,1018.3,1111122 
TCOON,ioos:station:TCOON:013:1,2015-02-10T17:12:00Z,27.4847,-97.3181,1018.3,1111122 
TCOON,ioos:station:TCOON:013:1,2015-02-10T18:12:00Z,27.4847,-97.3181,1017.7,1111122 
TCOON,ioos:station:TCOON:013:1,2015-02-10T19:12:00Z,27.4847,-97.3181,1016.6,1111122 
TCOON,ioos:station:TCOON:013:1,2015-02-10T20:12:00Z,27.4847,-97.3181,1016.1,1111122 
TCOON,ioos:station:TCOON:013:1,2015-02-10T21:12:00Z,27.4847,-97.3181,1015.4,1111122 
TCOON,ioos:station:TCOON:013:1,2015-02-10T22:12:00Z,27.4847,-97.3181,1015.0,1111122 
TCOON,ioos:station:TCOON:013:1,2015-02-10T23:12:00Z,27.4847,-97.3181,1014.7,1111122 
TCOON,ioos:station:TCOON:013:1,2015-02-11T00:12:00Z,27.4847,-97.3181,1014.7,1111122 
TCOON,ioos:station:TCOON:013:1,2015-02-11T01:12:00Z,27.4847,-97.3181,1015.1,1111122 
TCOON,ioos:station:TCOON:013:1,2015-02-11T02:12:00Z,27.4847,-97.3181,1015.2,1111122 
TCOON,ioos:station:TCOON:013:1,2015-02-11T03:18:00Z,27.4847,-97.3181,1015.4,1111122 
TCOON,ioos:station:TCOON:013:1,2015-02-11T04:18:00Z,27.4847,-97.3181,1015.3,1111122 
TCOON,ioos:station:TCOON:013:1,2015-02-11T05:36:00Z,27.4847,-97.3181,1014.9,1111122 
TCOON,ioos:station:TCOON:013:1,2015-02-11T06:18:00Z,27.4847,-97.3181,1014.8,1111122 
TCOON,ioos:station:TCOON:013:1,2015-02-11T07:12:00Z,27.4847,-97.3181,1014.5,1111122 
TCOON,ioos:station:TCOON:013:1,2015-02-11T08:12:00Z,27.4847,-97.3181,1014.3,1111122 
TCOON,ioos:station:TCOON:013:1,2015-02-11T09:12:00Z,27.4847,-97.3181,1014.0,1111122 
TCOON,ioos:station:TCOON:013:1,2015-02-11T10:12:00Z,27.4847,-97.3181,1013.8,1111122 
TCOON,ioos:station:TCOON:013:1,2015-02-11T11:12:00Z,27.4847,-97.3181,1014.2,1111122 
TCOON,ioos:station:TCOON:013:1,2015-02-11T12:12:00Z,27.4847,-97.3181,1014.8,1111122 
TCOON,ioos:station:TCOON:013:1,2015-02-11T13:12:00Z,27.4847,-97.3181,1015.8,1111122 
TCOON,ioos:station:TCOON:013:1,2015-02-11T14:12:00Z,27.4847,-97.3181,1016.5,1111122 
TCOON,ioos:station:TCOON:013:1,2015-02-11T15:12:00Z,27.4847,-97.3181,1017.5,1111122 
TCOON,ioos:station:TCOON:013:1,2015-02-11T16:12:00Z,27.4847,-97.3181,1017.6,1111122 
TCOON,ioos:station:TCOON:013:1,2015-02-11T17:12:00Z,27.4847,-97.3181,1017.8,1111122 
TCOON,ioos:station:TCOON:013:1,2015-02-11T18:12:00Z,27.4847,-97.3181,1017.4,1111122 
TCOON,ioos:station:TCOON:013:1,2015-02-11T19:12:00Z,27.4847,-97.3181,1016.7,1111122 
TCOON,ioos:station:TCOON:013:1,2015-02-11T20:12:00Z,27.4847,-97.3181,1015.8,1111122 
TCOON,ioos:station:TCOON:013:1,2015-02-11T21:12:00Z,27.4847,-97.3181,1015.6,1111122 
TCOON,ioos:station:TCOON:013:1,2015-02-11T22:12:00Z,27.4847,-97.3181,1015.5,1111122 
TCOON,ioos:station:TCOON:013:1,2015-02-11T23:12:00Z,27.4847,-97.3181,1015.5,1111122 
TCOON,ioos:station:TCOON:013:1,2015-02-12T00:12:00Z,27.4847,-97.3181,1016.5,1111122 
TCOON,ioos:station:TCOON:013:1,2015-02-12T01:12:00Z,27.4847,-97.3181,1017.4,1111122 
TCOON,ioos:station:TCOON:013:1,2015-02-12T02:12:00Z,27.4847,-97.3181,1018.4,1111122 
TCOON,ioos:station:TCOON:013:1,2015-02-12T03:12:00Z,27.4847,-97.3181,1019.0,1111122 
TCOON,ioos:station:TCOON:013:1,2015-02-12T04:12:00Z,27.4847,-97.3181,1019.7,1111122 
TCOON,ioos:station:TCOON:013:1,2015-02-12T05:12:00Z,27.4847,-97.3181,1020.0,1111122 
TCOON,ioos:station:TCOON:013:1,2015-02-12T06:12:00Z,27.4847,-97.3181,1020.5,1111122 
TCOON,ioos:station:TCOON:013:1,2015-02-12T07:06:00Z,27.4847,-97.3181,1020.8,1111122 
TCOON,ioos:station:TCOON:013:1,2015-02-12T08:12:00Z,27.4847,-97.3181,1020.7,1111122 
TCOON,ioos:station:TCOON:013:1,2015-02-12T09:12:00Z,27.4847,-97.3181,1020.8,1111122 
TCOON,ioos:station:TCOON:013:1,2015-02-12T10:12:00Z,27.4847,-97.3181,1021.3,1111122 
TCOON,ioos:station:TCOON:013:1,2015-02-12T11:12:00Z,27.4847,-97.3181,1021.9,1111122 
TCOON,ioos:station:TCOON:013:1,2015-02-12T12:12:00Z,27.4847,-97.3181,1022.7,1111122 
TCOON,ioos:station:TCOON:013:1,2015-02-12T13:12:00Z,27.4847,-97.3181,1023.7,1111122 
TCOON,ioos:station:TCOON:013:1,2015-02-12T14:12:00Z,27.4847,-97.3181,1024.8,1111122 
TCOON,ioos:station:TCOON:013:1,2015-02-12T15:12:00Z,27.4847,-97.3181,1025.7,1111122 
TCOON,ioos:station:TCOON:013:1,2015-02-12T16:12:00Z,27.4847,-97.3181,1026.8,1111122 